Home   Weather   Zwolle   Past weeks

Flag for Netherlands Past Weather in Zwolle, Netherlands — Yesterday and Last 2 Weeks

Now
46 °F

Scattered showers. Scattered clouds.


Feels Like: 38 °F
Forecast: 36 / 50 °F
Wind: 22 mph from West

Location: Amsterdam Schiphol Airport

Current Time: Apr 25, 2017 at 4:42:36 pm

Latest Report: Apr 25, 2017 at 3:55 pm


Visibility: N/A

Pressure: 29.83 "Hg

Humidity: 62%

Dew Point: 34 °F

Location of ZwolleLocation

Past Weather in Zwolle — Graph

°F

Zwolle Temperature Yesterday

Maximum temperature yesterday: 54 °F (at 9:25 am)
Minimum temperature yesterday: 43 °F (at 12:25 am)
Average temperature yesterday: 48 °F

High & Low Weather Summary for the Past Weeks

 TemperatureHumidityPressure
High55 °F (Apr 11, 1:55 pm)100% (Apr 13, 2:25 am)30.63 "Hg (Apr 13, 2:25 am)
Low32 °F (Apr 20, 3:55 am)39% (Apr 19, 9:55 am)29.68 "Hg (Apr 25, 2:25 am)
Average47 °F74%30.18 "Hg
* Reported Apr 10 2:25 pm — Apr 25 2:55 pm, Zwolle, Weather by CustomWeather, © 2017

Note: Actual official high and low records may vary slightly from our data, if they occured in-between our weather recording intervals... More about our weather records

Advertising

Zwolle Weather History for the Previous 24 Hours

Scroll right to see more
 ConditionsComfort  
Time TempWeatherWind HumidityBarometerVisibility
2:55 pm
Tue, Apr 25
46 °FPassing clouds.20 mph46%29.83 "HgN/A
2:25 pm46 °FScattered clouds.20 mph57%29.83 "HgN/A
1:55 pm48 °FScattered clouds.16 mph62%29.80 "HgN/A
1:25 pm45 °FScattered clouds.18 mph66%29.80 "HgN/A
12:55 pm45 °FPassing clouds.20 mph71%29.80 "HgN/A
12:25 pm48 °FSprinkles. Scattered clouds.18 mph62%29.80 "Hg6 mi
11:55 am46 °FScattered showers. Passing clouds.20 mph66%29.77 "HgN/A
11:25 am45 °FSprinkles. Scattered clouds.20 mph66%29.77 "HgN/A
10:55 am45 °FScattered clouds.18 mph76%29.74 "HgN/A
10:25 am43 °FScattered clouds.22 mph76%29.74 "HgN/A
9:55 am43 °FSprinkles. Scattered clouds.22 mph76%29.71 "Hg4 mi
9:25 am41 °FSprinkles. Scattered clouds.17 mph81%29.71 "Hg6 mi
8:55 am45 °FSprinkles. Scattered clouds.17 mph81%29.68 "Hg4 mi
8:25 am43 °FScattered showers. Passing clouds.16 mph76%29.68 "Hg6 mi
7:55 am39 °FSprinkles. Passing clouds.20 mph87%29.68 "HgN/A
7:25 am41 °FPassing clouds.16 mph81%29.68 "HgN/A
6:55 am41 °FScattered showers. Passing clouds.15 mph76%29.68 "HgN/A
6:25 am39 °FPassing clouds.14 mph81%29.68 "HgN/A
5:55 am39 °FPassing clouds.12 mph81%29.68 "HgN/A
5:25 am39 °FSprinkles. Passing clouds.14 mph81%29.68 "HgN/A
4:25 am39 °FPassing clouds.9 mph81%29.68 "HgN/A
3:55 am43 °FSprinkles. Passing clouds.14 mph76%29.71 "HgN/A
2:55 am45 °FPassing clouds.15 mph76%29.68 "HgN/A
2:25 am45 °FPassing clouds.10 mph87%29.68 "HgN/A
1:55 am46 °FSprinkles. Passing clouds.10 mph82%29.71 "HgN/A
1:25 am45 °FPassing clouds.8 mph93%29.71 "HgN/A
12:55 am45 °FPassing clouds.7 mph93%29.71 "HgN/A
12:25 am45 °FPassing clouds.6 mph93%29.74 "HgN/A
11:55 pm
Mon, Apr 24
45 °FPassing clouds.7 mph87%29.74 "HgN/A
11:25 pm46 °FPassing clouds.8 mph76%29.74 "HgN/A
10:55 pm45 °FPartly cloudy.5 mph81%29.77 "HgN/A
10:25 pm45 °FLight rain. Partly cloudy.12 mph81%29.77 "HgN/A
9:55 pm46 °FLight rain. Passing clouds.9 mph93%29.77 "HgN/A
9:25 pm46 °FLight rain. Partly cloudy.9 mph93%29.77 "HgN/A
8:55 pm46 °FLight rain. Partly cloudy.8 mph93%29.77 "HgN/A
8:25 pm48 °FSprinkles. Partly sunny.13 mph94%29.80 "Hg1 mi
7:55 pm50 °FSprinkles. Partly sunny.21 mph82%29.80 "HgN/A
7:25 pm52 °FLight rain. Partly sunny.17 mph77%29.80 "HgN/A
6:55 pm52 °FSprinkles. Passing clouds.16 mph77%29.80 "HgN/A
6:25 pm52 °FPassing clouds.17 mph77%29.83 "HgN/A
5:55 pm52 °FPassing clouds.14 mph77%29.83 "HgN/A
5:25 pm54 °FPassing clouds.15 mph72%29.83 "HgN/A
4:55 pm54 °FPartly sunny.14 mph72%29.86 "HgN/A
4:25 pm52 °FBroken clouds.15 mph82%29.86 "HgN/A
Weather by CustomWeather, © 2017

See weather overviewHow to use our weather pages